SCP
19 19 16 11 10 10 10 9 8 8 6 5 4 3 2 2 1 1 1 1 1 1 1 1 1 1 1 0 1 1 1 0 0 1 1 1 1 1 2 2 3 3 3
16 15 12 8 8 9 8 8 8 7 6 4 3 3 2 2 1 1 2 1 1 1 1 1 1 1 0 0 0 1 1 0 0 0 0 0 1 1 1 2 3 3 3
10 8 6 5 7 8 7 7 7 7 5 4 3 2 2 2 1 2 2 2 2 2 2 2 1 1 0 0 0 0 1 1 0 0 0 0 0 1 1 2 2 3 3
5 4 4 5 7 8 8 9 8 7 5 4 3 3 2 2 2 2 3 3 3 2 2 2 2 1 1 0 0 0 1 1 1 0 0 0 0 0 1 1 2 2 3
3 3 4 5 7 8 10 11 10 8 6 5 5 4 4 3 3 3 3 4 4 3 3 2 2 2 1 1 1 0 1 1 1 1 0 0 0 0 0 1 1 1 2
2 3 3 4 5 7 7 8 9 8 7 6 6 6 5 5 4 4 4 4 4 3 3 3 3 2 1 1 1 1 1 1 1 1 1 0 0 0 0 0 1 1 1
2 2 2 2 3 4 4 4 5 6 6 6 6 6 7 6 6 5 5 4 4 4 4 3 3 2 1 1 1 1 1 1 1 1 1 1 0 0 0 0 0 1 1
1 1 1 1 1 1 1 2 3 3 3 3 4 5 6 6 6 6 6 6 6 5 5 4 3 2 1 1 1 1 1 1 1 1 1 1 1 1 0 0 0 1 1
0 0 0 0 0 0 0 1 2 2 2 2 2 2 3 4 5 6 7 7 7 6 6 5 3 2 1 1 1 1 1 1 1 0 1 1 1 1 1 0 0 1 1
0 0 0 0 0 0 0 0 1 1 2 1 1 1 1 1 2 3 5 6 7 7 6 5 4 3 2 1 1 1 1 1 1 0 1 1 1 1 1 1 1 1 1
0 0 0 0 0 0 0 0 0 1 1 1 0 0 0 0 0 1 2 3 4 5 6 6 5 3 2 2 1 1 1 1 1 0 0 0 0 0 0 1 1 1 1
0 0 0 0 0 0 0 0 0 0 0 0 0 0 0 0 0 0 0 1 1 2 4 5 5 4 3 2 2 1 1 1 1 0 0 0 0 0 0 0 0 1 1
0 0 0 0 0 0 0 0 0 0 0 0 0 0 0 0 0 0 0 0 0 0 1 3 4 4 3 3 2 2 1 1 1 1 1 0 0 0 0 0 0 0 1
0 0 0 0 0 0 0 0 0 0 0 0 0 0 0 0 0 0 0 0 0 0 0 1 2 3 3 2 2 2 1 1 1 1 1 0 0 0 0 0 0 0 0
0 0 0 1 1 1 1 1 1 1 1 1 1 1 1 1 1 0 0 0 0 0 0 0 1 1 1 1 2 2 1 1 1 1 1 1 0 0 0 0 0 0 0
0 0 1 1 1 1 1 1 1 1 1 2 1 1 1 1 1 1 1 1 0 0 0 0 0 0 0 0 1 1 1 1 1 1 1 1 0 0 0 0 0 0 0
0 0 1 1 1 1 1 1 1 1 1 1 1 1 1 1 1 1 1 1 1 1 1 1 1 0 0 0 0 0 1 1 1 1 1 1 0 0 0 0 0 0 0
0 0 0 1 1 1 1 1 1 1 1 1 1 1 1 1 1 1 1 1 1 1 1 1 1 0 0 0 0 0 0 1 1 1 1 1 0 0 0 0 0 0 0
0 0 0 0 0 1 1 1 1 1 1 1 1 1 1 1 1 1 1 1 1 1 1 1 1 0 0 0 0 0 0 0 1 1 1 0 0 0 0 0 0 0 0
0 0 0 0 1 1 1 1 1 1 1 1 0 0 0 0 0 1 1 1 1 1 1 1 1 0 0 0 0 0 0 0 0 1 0 0 0 0 0 0 0 0 0
0 0 1 1 1 2 2 1 1 1 1 0 0 0 0 0 0 0 1 1 1 1 1 1 1 1 0 0 0 0 0 0 0 0 0 0 0 0 0 0 0 0 0
0 0 1 1 2 2 2 1 1 1 0 0 0 0 0 0 0 0 1 0 0 0 1 1 1 1 1 0 0 0 0 0 0 0 0 0 0 0 0 0 0 0 0
0 0 1 1 2 2 1 1 1 0 0 0 0 0 0 0 0 0 0 0 0 1 1 1 1 1 1 0 0 0 0 0 0 0 0 0 0 0 0 0 0 0 0
0 0 1 1 1 1 1 1 0 0 0 0 0 0 0 0 0 0 0 0 0 1 1 0 1 1 1 1 0 0 0 0 0 0 0 0 0 0 0 0 0 0 0
0 0 0 0 0 0 0 0 0 0 0 0 0 0 0 0 0 0 0 0 0 0 0 0 0 1 1 0 0 0 0 0 0 0 0 0 0 0 0 0 0 0 0
0 0 0 0 0 0 0 0 0 0 0 0 0 0 0 0 0 0 0 0 0 0 0 0 0 0 0 0 0 0 0 0 0 0 0 0 0 0 0 0 0 0 0
Wind_Speed
6 6 5 7 7 8 10 7 6 4 3 3 4 3 3 2 2 3 6 2 3 1 0 3 3 4 3 4 5 5 6 5 5 6 7 7 9 9 8 8 8 8 9
8 8 1 6 7 8 6 5 6 5 5 4 3 2 2 1 0 1 4 4 3 2 3 2 3 4 4 4 5 5 4 5 5 5 7 7 6 6 7 7 7 7 6
12 6 3 5 7 8 6 4 5 6 4 7 4 3 2 2 3 4 4 5 4 2 1 2 3 4 4 4 4 5 6 5 5 5 5 5 5 6 5 5 3 3 3
19 16 14 11 9 7 6 6 2 4 4 4 4 5 4 3 2 2 2 3 3 3 2 2 3 3 3 5 6 5 4 5 5 5 5 7 8 8 7 6 5 4 4
13 10 12 14 15 16 15 16 13 8 5 3 4 2 2 3 3 2 4 4 4 5 5 5 3 3 4 5 5 5 5 4 5 6 6 7 8 8 7 7 5 4 4
10 7 9 12 13 14 15 14 12 14 15 14 11 8 7 7 7 5 4 3 4 5 7 6 4 3 4 4 4 5 7 5 6 6 6 7 7 7 6 7 6 5 6
11 10 12 13 13 14 13 12 11 11 12 13 13 12 10 8 7 7 7 5 3 3 4 4 3 2 4 4 5 6 7 6 6 6 6 6 7 7 7 7 6 6 5
11 11 11 11 11 11 11 11 9 8 8 8 8 8 10 7 7 9 9 7 3 2 2 3 3 4 5 6 5 5 7 5 4 7 8 7 7 6 6 7 7 6 5
7 7 6 6 7 7 7 7 7 7 8 8 8 6 6 6 6 6 7 7 8 7 6 2 3 4 5 6 6 6 6 5 6 7 8 7 7 7 7 7 7 6 6
8 7 6 6 6 6 5 5 5 5 6 6 7 8 8 7 8 7 5 5 6 7 8 8 6 6 6 6 6 7 6 5 5 5 7 7 6 6 5 6 7 7 6
10 9 9 9 9 9 7 5 6 5 5 5 5 6 6 6 7 8 8 7 5 5 7 7 7 8 8 7 7 7 7 6 5 5 6 6 6 4 4 4 5 6 6
12 12 11 10 10 10 9 8 7 7 6 5 6 6 7 6 7 8 8 9 9 6 5 6 7 8 10 9 8 8 7 6 5 5 6 7 6 5 4 3 5 6 6
13 13 12 10 9 9 9 10 10 10 9 7 7 8 9 8 8 8 8 8 9 10 8 5 7 8 9 10 10 9 7 6 5 4 5 5 5 4 3 3 5 5 4
15 14 12 11 11 11 11 11 12 12 11 11 10 10 11 11 10 8 8 9 10 10 10 8 7 8 9 10 11 10 8 6 5 4 4 4 3 3 4 2 4 4 1
17 14 12 10 9 8 8 8 9 9 9 9 10 11 12 12 12 10 9 10 10 12 11 9 8 6 7 9 10 10 10 7 5 4 2 2 6 7 5 3 3 3 3
15 10 8 8 8 7 8 9 9 8 8 8 8 9 10 12 12 12 11 11 11 11 10 9 8 7 7 10 13 12 9 6 5 3 3 6 6 8 10 10 9 7 6
19 18 15 11 8 9 8 9 8 8 8 8 10 10 10 11 11 12 11 11 11 10 10 8 7 7 6 7 11 12 9 6 5 3 4 5 7 7 7 7 8 9 9
22 19 17 16 14 13 12 9 11 10 10 10 10 11 11 13 11 11 10 10 9 8 8 7 7 6 6 6 8 9 7 7 5 4 5 7 8 6 7 6 7 7 5
19 17 19 20 16 14 13 13 12 11 11 12 12 13 13 13 13 13 11 10 9 8 7 7 8 7 4 2 5 5 3 6 6 5 6 8 8 9 8 7 8 8 7
18 18 19 19 15 12 12 13 15 14 14 13 12 13 13 14 15 14 11 11 9 8 8 8 8 7 4 4 5 7 2 4 4 3 5 9 11 10 8 7 7 8 7
18 18 17 16 13 11 12 13 14 15 13 11 12 13 13 14 15 14 11 10 11 11 9 8 7 6 6 8 10 10 5 2 3 2 3 6 15 12 9 7 6 9 8
20 20 15 14 11 10 11 13 14 13 11 12 15 15 13 15 15 12 11 10 9 9 9 8 8 7 7 10 11 13 10 7 2 2 4 5 15 13 10 6 11 13 10
19 18 17 15 11 10 12 16 16 15 15 16 17 16 15 13 13 13 12 9 8 7 8 8 9 8 6 8 12 14 13 10 5 0 6 6 13 13 8 11 15 12 6
19 19 19 18 17 15 15 15 15 16 17 18 17 14 14 13 12 10 9 9 8 7 7 8 8 4 5 7 7 8 7 7 5 1 2 9 12 9 10 10 9 6 4
19 19 19 19 20 18 18 17 16 15 16 15 14 13 12 12 11 9 8 9 7 5 3 2 4 2 3 6 10 8 6 5 6 5 4 6 7 7 8 7 5 4 3
19 19 19 19 19 19 18 17 15 13 13 13 12 9 8 8 8 7 7 9 9 8 7 6 5 3 4 7 12 11 10 10 10 9 8 9 8 8 8 7 5 4 4
Wind_Direction
143 95 109 115 113 110 121 151 178 162 163 153 166 178 165 169 153 147 125 154 241 288 59 284 335 322 298 323 328 312 300 291 279 276 274 257 251 245 234 232 233 225 215
105 87 80 108 117 110 115 128 130 156 186 128 105 95 67 297 152 108 153 188 225 249 286 342 339 313 327 306 279 278 278 286 293 295 296 290 276 256 247 234 224 226 221
34 55 38 59 108 123 140 148 142 166 185 144 161 147 161 233 221 206 197 191 196 214 290 340 312 313 304 300 326 306 287 286 291 285 287 297 295 308 306 322 304 237 224
37 10 17 23 43 56 62 62 63 195 176 175 218 187 189 216 220 196 198 150 178 212 204 227 259 274 290 298 286 289 322 308 294 285 276 275 285 291 292 290 279 254 235
61 23 23 30 36 40 44 41 10 353 344 285 292 303 254 249 244 206 186 170 211 212 205 203 212 248 266 271 288 307 294 287 287 292 298 300 297 287 277 280 278 277 248
82 53 34 34 34 37 41 46 30 21 12 5 356 344 322 317 316 313 291 223 218 202 197 188 186 228 261 288 301 294 289 280 277 279 280 282 285 287 283 277 270 267 264
68 51 39 35 33 33 36 39 34 24 18 16 14 11 359 338 317 305 283 252 241 232 182 159 150 243 277 281 274 275 275 274 275 280 281 282 281 286 292 293 285 268 265
63 52 39 33 26 25 25 25 23 18 15 16 11 18 18 11 2 350 336 326 316 312 70 126 188 232 251 265 270 278 277 283 299 295 287 282 278 273 272 276 284 285 277
54 50 37 30 20 16 15 6 356 352 354 359 355 358 2 355 350 349 357 353 348 336 335 279 227 240 249 256 267 272 273 283 285 284 284 282 280 273 267 263 259 258 270
18 18 11 6 357 349 348 339 327 329 333 349 351 343 340 338 333 329 336 348 349 344 330 314 289 266 259 256 256 266 268 278 279 280 279 281 279 273 267 260 256 247 239
344 342 340 342 337 331 326 322 314 312 314 322 322 314 313 322 322 316 317 318 315 324 322 306 289 276 266 259 256 260 268 270 284 295 295 302 304 304 294 277 261 251 233
325 320 319 320 322 322 319 315 308 300 293 292 288 285 286 284 282 287 296 305 305 298 299 306 294 280 273 265 260 261 268 273 282 290 296 305 316 321 314 312 287 264 235
308 304 301 298 296 294 292 291 291 289 283 273 266 272 273 273 270 273 278 282 291 298 301 304 308 300 285 275 268 260 257 259 266 280 293 303 313 319 331 326 310 287 249
305 295 285 275 266 261 260 263 267 266 264 259 255 257 261 265 266 262 262 269 272 276 284 291 298 305 303 286 272 264 254 251 255 260 269 285 319 348 339 350 331 311 242
293 283 276 272 269 268 267 271 269 270 269 266 257 254 256 259 263 260 254 256 259 263 261 263 268 287 304 296 292 276 258 245 244 246 242 81 83 67 41 45 20 10 82
319 324 311 301 306 315 315 311 301 295 288 285 284 278 268 261 259 255 252 251 252 255 252 250 254 259 278 310 313 295 269 253 243 221 145 140 133 102 78 66 54 54 89
336 325 318 313 308 302 291 282 287 292 294 296 299 298 292 286 277 266 252 246 248 250 247 247 254 256 255 274 284 278 271 256 235 188 170 177 140 136 117 97 77 63 77
321 317 314 312 305 301 299 294 296 289 289 293 295 295 296 297 296 290 273 255 250 251 247 249 255 266 277 278 257 254 262 263 235 184 162 138 150 151 146 131 100 76 71
313 310 308 304 301 297 293 289 288 287 287 288 290 292 287 286 289 289 290 285 268 256 253 252 245 249 252 255 237 219 257 266 245 196 159 144 143 151 150 127 114 103 90
309 303 300 297 294 291 291 286 285 284 281 282 288 292 288 282 279 276 280 287 283 269 254 246 240 241 215 157 184 181 196 274 278 230 164 151 142 151 149 137 132 126 127
304 302 298 297 294 291 290 286 291 290 284 286 294 293 287 282 279 272 265 268 271 270 263 256 250 237 190 161 164 170 171 155 349 312 197 151 147 151 155 155 144 143 141
308 307 303 300 297 298 301 303 304 306 302 298 295 292 284 279 277 273 264 258 260 266 265 256 250 241 191 170 169 170 166 148 147 320 299 173 161 155 156 153 149 154 153
313 312 311 309 309 312 317 311 310 309 303 296 290 286 280 273 271 271 268 263 255 254 256 252 244 233 197 174 181 183 172 152 143 219 297 214 170 151 147 151 156 164 179
321 322 322 319 317 320 318 309 303 299 293 287 284 280 275 269 264 261 261 261 255 247 243 249 258 238 175 171 182 193 184 151 123 101 216 183 171 152 139 151 163 186 200
330 332 326 321 318 316 308 300 295 290 285 283 279 274 268 265 261 256 253 256 247 217 194 273 292 262 196 197 192 188 182 161 139 136 169 180 170 148 146 159 179 198 169
333 329 323 318 313 308 302 297 291 284 281 280 275 269 266 263 256 253 258 245 231 209 201 226 244 241 224 196 185 183 168 153 149 160 187 180 168 154 155 165 178 176 151